Unicom:                    122.8

AWOS:                  118.275

Elevation           1458’ MSL

TPA:                   2500’ MSL

06/24:         5003’ L   75’ W

PAPI:       06/Left     24/Left

(Operate lights on unicom freq.)

Traffic Pattern: Left

Beacon: Sunset to Sunrise

Windsock: yes, lighted

Segmented Circle: No

 

Cleveland Center: 126.72/291.65

FSS: Altoona

[Source: ADDS]
METAR
KFKL 051328Z AUTO 18006KT 3SM BR OVC003 18/18 A2994 RMK AO2 =
KFKL 051313Z 0513/0612 18004KT 3SM BR OVC002 FM051500 20005KT P6SM BKN010 FM051700 21005KT P6SM BKN020 FM051900 22005KT P6SM BKN035 FM060000 23003KT P6SM SCT035
TAF
KFKL 051313Z 0513/0612 18004KT 3SM BR OVC002 FM051500 20005KT P6SM BKN010 FM051700 21005KT P6SM BKN020 FM051900 22005KT P6SM BKN035 FM060000 23003KT P6SM SCT035 =
[Source: ADDS]
METAR
KDUJ 051315Z AUTO 23005KT 3SM BR OVC002 18/17 A2994 RMK AO2 T01780167 =
KDUJ 051314Z 0513/0612 22003KT 2SM BR OVC002 FM051500 23003KT P6SM OVC010 FM051800 24005KT P6SM BKN025 FM052100 25005KT P6SM BKN035 FM060000 25005KT P6SM SCT025
TAF
KDUJ 051314Z 0513/0612 22003KT 2SM BR OVC002 FM051500 23003KT P6SM OVC010 FM051800 24005KT P6SM BKN025 FM052100 25005KT P6SM BKN035 FM060000 25005KT P6SM SCT025 =

About Us.

            

Clarion County Airport Authority

Overview -The Clarion County Airport Authority is a municipal authority created in 1967, under the Municipal Authorities Act of 1945.  The original purpose of the Authority was to site and construct a facility to replace Rhea Airport, a small grass airport at the US 322, PA 66 intersection, which was closed due to planned highway construction.

    The Airport Authority completed construction of the Clarion County Airport in 1975, and is responsible for overall operation of the airport.   The day to day responsibilities of airport operations are delegated to the Airport Manager, who is one of two employees of the Authority. 

 

    The Clarion County Airport supports the needs of business and recreational flyers in the area.  It’s close proximity to both Cook Forest State Park and the Allegheny National Forest affords the Airport the opportunity to provide airport users access to numerous hunting, fishing, golfing and camping activities.  In doing so, the Airport supports many of the region’s primary economic activities.


     Mission Statement  – The mission of the Clarion County Airport Authority is to provide the citizens of Clarion County and surrounding areas with safe and efficient access to the National Air Transportation System by providing and operating a general aviation business service airport.   The administration of the airport will be done in a manner that emphasizes safety and economic development for the Clarion County area, while utilizing resources in a way that will result in the most efficient use of public funds, and resulting in the least possible expense to the County taxpayers.

 

2018 Authority Officers

      Dr. Norm Wagner      President                                                                                                                                                         

      Dave Cyphert             Vice President

      Andrew Kirby             Secretary

      David Cox                   Treasurer